Tracking 35048 objects as of 19-Aug-2026
HD Live streaming from Space Station
objects crossing your sky now

KINEIS-5E

Track KINEIS-5E now!
10-day predictions
KINEIS-5E is classified as:


NORAD ID: 62083
Int'l Code: 2024-219C
Launch date: November 25, 2024
Source: France (FR)
Launch site: Rocket Lab Launch Complex (RLLC)

Uplink (MHz):
Downlink (MHz): 400.639
Beacon (MHz):
Mode: 800_BPSK
Call sign:
Status: Unknown

Your satellite tracking list
Your tracking list is empty




NASA's NSSDC Master Catalog

Two Line Element Set (TLE):
1 62083U 24219C   26230.90069266  .00000467  00000-0  81468-4 0  9996
2 62083  97.9068  28.1120 0007693  70.9069 289.2971 14.72332939 92990
Source of the keplerian elements: AFSPC